Probability
0 0 0 0 0 0 0 0 0 0 0 0 0 0 0 0 0 0 0 0 0 0 0 0 0 0 0 0 0 0 0 0 0 0 0 0 0 0 0 0 0 0 0 0
0 0 0 0 0 0 0 0 0 0 0 0 0 0 0 0 0 0 0 0 0 0 0 0 0 0 0 0 0 0 0 0 0 0 0 0 0 0 0 0 0 0 0 0
0 0 0 0 0 0 0 0 0 0 0 0 0 0 0 0 0 0 0 0 0 0 0 0 0 0 0 0 0 0 0 0 0 0 0 0 0 0 0 0 0 0 0 0
0 0 0 0 0 0 0 0 0 0 0 0 0 0 0 0 0 0 0 0 0 0 0 0 0 0 0 0 0 0 0 0 0 0 0 0 0 0 0 0 0 0 0 0
0 0 0 0 0 0 0 0 0 0 0 0 0 0 0 0 0 0 0 0 0 0 0 0 0 0 0 0 0 0 0 0 0 0 0 0 0 0 0 0 0 0 0 0
0 0 0 0 0 0 0 0 0 0 0 0 0 0 0 0 0 0 0 0 0 0 0 0 0 0 0 0 0 0 0 0 0 0 0 0 0 0 0 0 0 0 0 0
0 0 0 0 0 0 0 0 0 0 0 0 0 0 0 0 0 0 0 0 0 0 0 0 0 0 0 0 0 0 0 0 0 0 0 0 0 0 0 0 0 0 0 0
0 0 0 0 0 0 0 0 0 0 0 0 0 0 0 0 0 0 0 0 0 0 0 0 0 0 0 0 0 0 0 0 0 0 0 0 0 0 0 0 0 0 0 0
0 0 0 0 0 0 0 0 0 0 0 0 0 0 0 0 0 0 0 0 0 0 0 0 0 0 0 0 0 0 0 0 0 0 0 0 0 0 0 0 0 0 0 0
0 0 0 0 0 0 0 0 0 0 0 0 0 0 0 0 0 0 0 0 0 0 0 0 0 0 0 0 0 0 0 0 0 0 0 0 0 0 0 0 0 0 0 0
0 0 0 0 0 0 0 0 0 0 0 0 0 0 0 0 0 0 0 0 0 0 0 0 0 0 0 0 0 0 0 0 0 0 0 0 0 0 0 0 0 0 0 0
0 0 0 0 0 0 0 0 0 0 0 0 0 0 0 0 0 0 0 0 0 0 0 0 0 0 0 0 0 0 0 0 0 0 0 0 0 0 0 0 0 0 0 0
0 0 0 0 0 0 0 0 0 0 0 0 0 0 0 0 0 0 0 0 0 0 0 0 0 0 0 0 0 0 0 0 0 0 0 0 0 0 0 0 0 0 0 0
0 0 0 0 0 0 0 0 0 0 0 0 0 0 0 0 0 0 0 0 0 0 0 0 0 0 0 0 0 0 0 0 0 0 0 0 0 0 0 0 0 0 0 0
0 0 0 0 0 0 0 0 0 0 0 0 0 0 0 0 0 0 0 0 0 0 0 0 0 0 0 0 0 0 0 0 0 0 0 0 0 0 0 0 0 0 0 0
0 0 0 0 0 0 0 0 0 0 0 0 0 0 0 0 0 0 0 0 0 0 0 0 0 0 0 0 0 0 0 0 0 0 0 0 0 0 0 0 0 0 0 0
0 0 0 0 0 0 0 0 0 0 0 0 0 0 0 0 0 0 0 0 0 0 0 0 0 0 0 0 0 0 0 0 0 0 0 0 0 0 0 0 0 0 0 0
0 0 0 0 0 0 0 0 0 0 0 0 0 0 0 0 0 0 0 0 0 0 0 0 0 0 0 0 0 0 0 0 0 0 0 0 0 0 0 0 0 0 0 0
0 0 0 0 0 0 0 0 0 0 0 0 0 0 0 0 0 0 0 0 0 0 0 0 0 0 0 0 0 0 0 0 0 0 0 0 0 0 0 0 0 0 0 0
0 0 0 0 0 0 0 0 0 0 0 0 0 0 0 0 0 0 0 0 0 0 0 0 0 0 0 0 0 0 0 0 0 0 0 0 0 0 0 0 0 0 0 0
0 0 0 0 0 0 0 0 0 0 0 0 0 0 0 0 0 0 0 0 0 0 0 0 0 0 0 0 0 0 0 0 0 0 0 0 0 0 0 0 0 0 0 0
0 0 0 0 0 0 0 0 0 0 0 0 0 0 0 0 0 0 0 0 0 0 0 0 0 0 0 0 0 0 0 0 0 0 0 0 0 0 0 0 0 0 0 0
0 0 0 0 0 0 0 0 0 0 0 0 0 0 0 0 0 0 0 0 0 0 0 0 0 0 0 0 0 0 0 0 0 0 0 0 0 0 0 0 0 0 0 0
0 0 0 0 0 0 0 0 0 0 0 0 0 0 0 0 0 0 0 0 0 0 0 0 0 0 0 0 0 0 0 0 0 0 0 0 0 0 0 0 0 0 0 0
0 0 0 0 0 0 0 0 0 0 0 0 0 0 0 0 0 0 0 0 0 0 0 0 0 0 0 0 0 0 0 0 0 0 0 0 0 0 0 0 0 0 0 0
0 0 0 0 0 0 0 0 0 0 0 0 0 0 0 0 0 0 0 0 0 0 0 0 0 0 0 0 0 0 0 0 0 0 0 0 0 0 0 0 0 0 0 0
0 0 0 0 0 0 0 0 0 0 0 0 0 0 0 0 0 0 0 0 0 0 0 0 0 0 0 0 0 0 0 0 0 0 0 0 0 0 0 0 0 0 0 0
Height
5497 5500 5503 5508 5512 5516 5520 5525 5531 5536 5540 5545 5549 5553 5558 5562 5567 5572 5576 5580 5585 5589 5594 5598 5602 5606 5610 5615 5619 5623 5627 5631 5635 5638 5642 5645 5648 5651 5654 5657 5659 5662 5664 5667
5491 5494 5497 5501 5505 5509 5513 5518 5523 5527 5532 5536 5540 5544 5549 5553 5558 5563 5567 5571 5575 5580 5584 5588 5593 5597 5601 5605 5609 5613 5617 5621 5625 5628 5632 5635 5638 5641 5644 5647 5649 5652 5654 5656
5486 5488 5490 5494 5499 5503 5508 5512 5516 5520 5526 5528 5532 5536 5540 5544 5549 5553 5557 5562 5566 5570 5574 5579 5583 5587 5592 5595 5599 5603 5607 5611 5614 5618 5621 5624 5627 5630 5633 5636 5638 5641 5643 5645
5480 5483 5485 5491 5494 5497 5501 5505 5509 5513 5517 5521 5524 5528 5532 5536 5540 5544 5548 5553 5557 5561 5565 5569 5573 5577 5581 5586 5589 5593 5597 5600 5603 5607 5610 5613 5616 5619 5622 5624 5627 5629 5631 5633
5476 5477 5480 5485 5488 5491 5494 5498 5502 5506 5510 5514 5517 5521 5525 5529 5532 5536 5540 5544 5548 5552 5556 5560 5564 5568 5572 5576 5579 5583 5586 5589 5592 5596 5599 5602 5605 5608 5610 5613 5615 5617 5619 5621
5471 5473 5476 5481 5483 5485 5490 5492 5496 5499 5503 5507 5510 5515 5519 5522 5525 5528 5532 5535 5539 5543 5547 5551 5555 5558 5562 5566 5569 5572 5575 5579 5582 5584 5587 5591 5594 5596 5599 5601 5603 5605 5607 5609
5467 5469 5472 5475 5478 5481 5485 5488 5490 5493 5496 5500 5504 5508 5512 5515 5518 5521 5524 5527 5530 5534 5538 5541 5545 5549 5552 5556 5559 5562 5565 5568 5571 5573 5576 5579 5582 5584 5587 5589 5591 5594 5596 5598
5464 5466 5470 5471 5473 5476 5478 5481 5484 5487 5490 5493 5497 5501 5504 5507 5510 5513 5516 5519 5522 5525 5529 5532 5535 5539 5542 5546 5549 5551 5554 5557 5559 5562 5565 5568 5570 5573 5575 5577 5580 5582 5584 5586
5462 5465 5465 5466 5468 5471 5473 5476 5478 5481 5484 5487 5490 5494 5497 5500 5503 5506 5509 5511 5514 5517 5520 5523 5526 5529 5532 5535 5538 5541 5544 5546 5549 5552 5554 5557 5559 5562 5564 5566 5569 5571 5573 5575
5458 5460 5461 5463 5465 5467 5469 5471 5473 5476 5478 5481 5484 5487 5490 5493 5496 5498 5501 5504 5506 5509 5511 5514 5517 5519 5522 5525 5528 5530 5533 5536 5538 5541 5544 5546 5549 5551 5553 5556 5557 5559 5561 5563
5454 5457 5458 5460 5461 5463 5465 5466 5468 5471 5473 5476 5478 5481 5484 5487 5489 5492 5494 5496 5499 5501 5503 5506 5508 5510 5513 5515 5518 5520 5523 5525 5528 5531 5533 5536 5538 5540 5542 5545 5547 5549 5551 5552
5451 5453 5455 5457 5458 5459 5461 5462 5464 5466 5468 5470 5472 5475 5478 5480 5483 5485 5487 5489 5492 5494 5496 5498 5500 5502 5504 5506 5509 5511 5513 5515 5518 5520 5523 5525 5528 5530 5532 5534 5536 5538 5539 5541
5448 5449 5451 5452 5454 5455 5456 5458 5459 5461 5463 5465 5467 5469 5471 5474 5476 5479 5481 5483 5485 5487 5489 5490 5492 5494 5496 5498 5500 5502 5504 5506 5508 5510 5513 5515 5518 5520 5522 5524 5525 5527 5529 5530
5444 5445 5447 5448 5449 5450 5451 5453 5454 5456 5457 5459 5461 5463 5465 5468 5470 5472 5474 5476 5478 5480 5481 5483 5485 5486 5488 5490 5492 5494 5496 5497 5499 5501 5503 5505 5507 5509 5511 5513 5515 5516 5518 5519
5440 5441 5442 5443 5444 5445 5446 5448 5449 5451 5452 5454 5456 5458 5460 5462 5464 5466 5468 5470 5471 5473 5474 5476 5477 5479 5481 5482 5484 5485 5487 5489 5490 5492 5494 5495 5497 5499 5501 5503 5504 5506 5507 5508
5436 5437 5438 5439 5440 5440 5441 5442 5444 5445 5446 5448 5450 5452 5454 5456 5457 5459 5461 5463 5465 5466 5467 5469 5470 5471 5473 5474 5475 5477 5478 5480 5481 5483 5484 5486 5487 5489 5490 5492 5493 5495 5496 5497
5432 5433 5434 5435 5435 5435 5436 5437 5438 5439 5440 5442 5444 5446 5448 5450 5451 5453 5455 5456 5458 5459 5460 5462 5463 5464 5465 5466 5467 5468 5469 5471 5472 5473 5474 5476 5477 5478 5480 5481 5482 5483 5485 5485
5428 5429 5429 5430 5430 5431 5431 5432 5432 5433 5434 5436 5438 5440 5441 5443 5445 5446 5448 5449 5451 5452 5453 5455 5455 5456 5457 5458 5459 5460 5461 5462 5463 5464 5465 5466 5467 5468 5469 5470 5471 5472 5473 5473
5424 5425 5425 5425 5425 5425 5426 5426 5427 5427 5428 5430 5431 5433 5435 5436 5438 5440 5441 5443 5444 5445 5446 5447 5448 5449 5449 5450 5450 5451 5452 5453 5453 5454 5455 5456 5456 5457 5458 5459 5459 5460 5461 5461
5420 5420 5420 5420 5420 5420 5420 5421 5421 5422 5423 5424 5425 5426 5428 5429 5431 5433 5434 5435 5436 5437 5438 5439 5440 5440 5441 5441 5442 5442 5443 5443 5444 5444 5445 5445 5446 5447 5447 5448 5448 5448 5449 5449
5415 5415 5415 5415 5415 5415 5415 5415 5416 5416 5417 5418 5419 5420 5421 5422 5424 5425 5426 5428 5429 5429 5430 5431 5431 5432 5432 5433 5433 5433 5433 5433 5434 5434 5434 5435 5435 5436 5436 5436 5437 5437 5437 5437
5409 5409 5409 5409 5409 5409 5409 5409 5409 5410 5410 5411 5412 5413 5414 5415 5416 5417 5418 5420 5421 5421 5422 5422 5423 5423 5423 5424 5423 5423 5423 5423 5424 5424 5424 5424 5425 5425 5425 5426 5426 5426 5426 5426
5404 5404 5403 5403 5403 5403 5402 5402 5403 5403 5404 5404 5405 5406 5406 5407 5408 5409 5410 5411 5412 5412 5413 5413 5414 5414 5414 5414 5414 5414 5414 5414 5414 5414 5414 5414 5415 5415 5415 5415 5415 5415 5415 5415
5399 5398 5398 5397 5397 5397 5397 5396 5396 5397 5397 5398 5398 5399 5399 5400 5400 5401 5402 5402 5403 5404 5404 5405 5405 5405 5405 5405 5405 5405 5404 5404 5404 5404 5405 5405 5405 5405 5405 5405 5405 5405 5404 5404
5395 5394 5393 5392 5392 5391 5391 5391 5391 5390 5390 5391 5391 5391 5392 5392 5393 5393 5393 5394 5394 5395 5395 5396 5396 5396 5396 5396 5396 5395 5395 5395 5395 5395 5395 5395 5395 5394 5394 5394 5394 5394 5394 5393
5390 5389 5388 5387 5387 5386 5385 5385 5384 5384 5384 5384 5384 5384 5384 5384 5384 5385 5385 5385 5385 5386 5386 5386 5386 5387 5387 5386 5386 5386 5386 5386 5385 5385 5385 5385 5384 5384 5384 5384 5383 5383 5383 5383
5386 5385 5384 5382 5382 5381 5380 5379 5378 5377 5377 5377 5377 5377 5377 5377 5377 5377 5377 5377 5377 5376 5376 5377 5377 5377 5377 5377 5377 5377 5377 5376 5375 5375 5375 5374 5374 5374 5373 5373 5373 5373 5373 5373
Wind_Speed
25 27 29 31 31 31 33 35 36 36 36 37 37 38 38 38 37 37 37 38 39 40 41 41 41 40 41 40 39 39 40 40 40 40 40 41 41 42 42 42 42 42 43 42
24 25 27 30 30 29 30 31 33 33 33 35 36 36 37 37 37 36 37 37 38 39 40 40 40 41 41 40 40 40 41 41 41 41 41 42 42 43 43 43 43 43 43 43
22 24 26 28 29 31 30 29 30 31 30 31 33 34 35 35 35 35 36 37 37 38 38 39 40 40 40 40 40 41 41 41 42 42 42 43 43 43 44 44 44 45 44 44
19 22 25 25 26 28 30 30 30 28 27 28 29 31 32 33 33 34 34 36 37 37 38 39 39 40 40 40 40 41 42 42 42 43 43 44 44 45 45 44 45 45 46 46
18 20 21 23 23 25 27 28 28 28 28 28 29 29 29 30 30 32 33 34 35 37 38 38 38 39 40 40 40 41 42 42 42 43 43 44 45 45 45 45 45 45 45 45
17 18 18 19 21 22 24 26 27 27 28 29 28 28 28 27 27 29 31 33 34 35 37 37 38 38 39 39 40 40 41 42 43 43 43 44 45 45 44 45 45 44 44 44
15 16 16 17 19 20 21 23 24 26 27 28 29 28 27 27 26 27 28 31 33 34 35 37 38 38 39 39 39 39 40 41 42 43 43 43 43 43 43 43 44 44 44 44
14 14 14 14 16 19 19 20 22 24 25 26 27 28 27 27 27 27 27 29 31 33 34 35 36 37 38 38 39 39 39 40 41 41 42 42 42 42 42 42 42 42 42 43
12 13 12 13 14 16 17 18 19 20 23 24 25 26 27 27 27 27 27 28 30 31 32 34 35 36 37 38 38 39 39 40 40 40 40 41 41 40 41 41 41 41 41 41
12 12 12 11 12 14 15 17 18 19 21 22 23 24 25 26 26 26 26 27 28 29 30 32 33 34 35 36 37 38 39 39 39 39 39 39 40 40 39 40 40 40 40 40
12 12 12 13 13 13 14 16 17 19 20 21 22 23 23 24 24 24 25 27 27 27 28 30 31 33 34 35 35 37 37 38 38 38 38 38 38 39 39 39 39 40 40 40
13 13 13 13 14 14 14 14 16 17 19 21 22 22 22 23 23 23 23 24 25 26 26 27 29 31 32 32 33 34 35 36 37 37 37 38 38 38 38 38 38 39 39 39
13 14 14 14 14 15 15 14 15 17 18 20 21 22 22 22 22 21 22 23 24 25 26 27 28 29 30 30 31 32 33 34 35 36 36 36 37 37 37 37 38 38 39 39
14 14 15 15 15 15 15 16 16 16 17 18 20 21 22 22 22 22 22 23 23 24 25 25 26 27 28 28 29 29 30 31 32 33 35 36 37 38 37 38 38 38 38 39
13 14 15 15 15 16 16 16 17 17 18 19 20 21 21 22 22 23 22 23 23 23 24 24 25 26 27 28 28 29 29 30 31 31 33 34 36 37 37 38 38 39 39 39
12 13 14 15 16 16 17 17 17 17 18 20 20 20 21 21 22 22 23 23 23 23 23 23 24 25 26 27 28 29 30 30 31 32 32 33 34 35 36 37 37 37 37 38
11 12 13 14 15 16 17 18 18 19 19 20 20 20 20 21 21 22 23 23 23 23 23 23 23 24 25 27 28 29 30 30 31 32 32 32 33 34 35 36 36 36 37 37
11 12 13 14 14 15 16 17 18 19 19 20 21 21 21 21 21 21 22 23 23 23 24 24 24 25 25 26 27 28 29 30 30 31 32 32 33 34 35 35 36 37 37 38
13 13 14 14 14 15 15 16 18 19 19 20 21 22 22 22 22 22 23 23 24 24 24 25 25 25 26 26 27 28 28 29 31 31 32 33 33 33 34 35 36 37 38 39
14 14 14 14 15 15 16 17 18 18 19 20 21 22 22 23 23 23 24 24 25 25 25 26 26 26 26 27 27 28 29 30 30 31 32 32 33 33 34 35 36 36 37 37
15 15 15 16 16 17 17 18 18 19 19 20 21 22 22 23 23 24 24 25 25 25 26 26 26 27 27 27 27 28 29 30 30 31 31 31 32 33 33 34 34 35 35 35
14 15 16 16 17 18 18 18 19 20 20 20 21 21 22 23 24 24 25 25 25 26 26 26 27 27 27 27 28 28 29 30 30 30 30 30 31 31 32 32 33 33 33 34
14 15 15 16 16 17 17 18 19 19 20 20 21 21 22 23 24 24 25 25 25 25 25 25 26 26 26 27 27 28 28 29 29 29 29 29 29 30 30 31 32 32 32 32
13 13 14 15 15 16 16 17 18 19 20 20 21 22 22 23 24 24 24 24 25 25 26 26 26 26 26 27 27 27 27 28 28 28 28 28 28 29 30 31 32 32 32 32
12 12 13 13 14 15 16 17 17 18 19 20 21 22 23 23 24 24 25 25 26 27 27 27 27 27 27 27 27 27 27 27 28 28 29 29 30 30 30 31 31 31 32 32
12 13 13 13 13 14 15 16 17 18 19 20 20 21 21 22 23 24 25 25 26 27 27 27 27 27 27 27 27 27 27 27 28 29 29 30 30 31 31 31 31 31 31 31
13 14 15 15 16 16 16 17 17 17 18 19 20 20 21 22 22 23 24 25 25 26 26 26 26 27 27 27 27 27 27 28 28 28 29 29 29 30 30 30 30 30 30 29
Wind_Direction
239 237 234 229 226 228 231 232 233 232 233 233 234 235 236 236 235 234 234 235 236 236 236 236 237 238 240 238 239 239 238 239 241 242 242 242 243 244 245 246 247 248 249 250
236 236 235 232 228 227 229 230 231 232 232 232 234 236 236 236 236 235 234 234 235 236 236 236 236 238 238 239 239 239 239 240 241 241 242 242 243 245 245 246 247 248 249 251
239 235 236 234 230 229 230 231 233 232 231 233 234 235 236 237 237 236 234 233 234 235 235 236 236 236 237 238 238 239 240 241 242 243 243 243 244 245 247 247 248 248 249 251
240 235 236 234 232 231 231 232 233 233 232 231 231 233 235 235 235 235 235 235 235 234 234 235 236 236 237 238 239 240 241 242 244 245 245 246 246 247 248 249 250 251 251 252
239 237 236 234 233 231 231 233 233 233 232 230 229 229 232 233 235 236 236 235 235 235 235 235 236 237 238 239 240 241 242 243 244 245 246 247 248 249 250 250 251 252 252 252
235 234 233 233 234 234 234 235 231 231 231 231 230 230 229 231 235 237 237 237 236 236 236 237 237 238 238 239 241 243 243 244 245 245 247 248 249 250 250 252 253 253 253 252
230 232 233 231 232 233 234 234 232 230 230 231 232 231 231 232 235 238 238 238 237 237 237 238 238 238 239 241 243 244 245 245 245 246 248 249 250 251 251 251 252 253 253 253
230 234 233 233 230 232 234 233 233 231 229 231 232 232 234 236 237 239 239 238 238 239 240 240 240 240 240 242 244 245 246 246 245 247 248 250 251 251 251 250 251 253 253 254
229 232 233 232 230 230 231 233 233 230 228 230 230 232 234 237 239 240 241 242 241 241 241 241 242 242 243 244 245 246 246 245 246 247 249 250 251 251 251 251 253 254 255 256
227 227 228 228 227 228 230 233 234 230 229 230 229 230 233 237 239 240 240 242 243 242 242 242 243 243 245 246 246 247 247 246 246 247 248 248 250 251 251 252 254 255 257 258
227 227 228 228 227 230 233 233 234 233 233 233 230 228 230 234 237 239 240 240 240 242 243 244 245 245 246 246 247 247 247 247 248 248 248 248 249 250 251 252 254 255 256 257
232 233 234 232 232 234 238 239 238 238 237 235 233 230 231 233 235 237 238 238 238 240 242 242 243 245 245 245 246 247 248 248 247 247 247 247 248 250 252 253 254 255 256 258
237 237 239 240 242 243 243 242 241 241 240 237 235 233 234 234 235 235 237 238 238 239 241 242 245 246 246 246 246 247 248 248 248 248 247 248 248 250 251 252 254 256 257 257
244 246 247 247 248 248 247 244 243 243 242 239 237 235 233 233 234 237 239 239 240 241 241 242 244 245 245 245 245 247 248 248 249 249 249 249 250 251 251 252 254 256 256 258
251 253 251 249 249 250 249 248 247 246 244 241 238 237 234 233 234 236 238 240 241 243 244 244 244 245 245 248 248 247 249 250 250 250 251 251 250 250 251 253 254 255 256 258
249 251 252 252 253 253 250 249 249 247 246 243 240 238 236 236 237 237 238 240 241 242 244 245 245 245 247 249 249 249 250 250 250 251 253 253 251 251 252 253 254 256 258 260
251 252 253 254 254 254 252 252 252 249 247 244 240 239 239 238 239 239 240 240 241 243 245 246 249 250 251 251 251 251 252 252 253 254 254 254 255 255 255 255 256 258 259 261
256 260 262 262 259 255 254 254 254 251 248 245 241 239 240 241 241 241 242 243 244 246 248 250 252 253 254 254 253 253 253 253 254 255 256 256 257 258 258 258 259 260 261 262
256 258 262 265 263 258 256 256 255 252 248 246 244 242 242 242 243 244 246 246 247 249 252 254 254 255 256 256 255 255 255 256 256 257 258 258 259 259 259 260 261 262 263 264
258 260 263 265 263 260 257 256 254 251 248 246 245 245 245 246 246 247 248 250 251 252 254 256 257 259 260 260 259 259 259 260 260 260 260 260 261 261 262 263 263 264 265 265
263 263 264 266 264 261 259 256 254 252 250 248 247 248 249 250 249 250 252 254 255 257 257 258 260 261 262 263 264 264 263 263 263 262 262 262 263 264 264 265 265 265 266 266
269 267 267 267 266 263 262 260 256 253 252 250 250 250 251 252 253 254 256 256 257 259 260 260 261 263 264 265 266 266 265 264 264 263 264 264 264 264 265 265 266 266 267 268
275 272 271 270 268 266 265 262 258 255 255 254 253 253 253 254 255 256 257 258 259 260 260 261 263 264 265 267 268 267 266 265 265 265 265 264 264 265 265 266 267 267 268 269
280 277 274 271 269 266 264 262 259 256 256 255 255 256 256 256 257 258 259 260 260 261 261 263 264 265 267 269 269 268 267 266 265 265 265 265 266 266 267 267 267 268 269 270
284 279 278 276 272 268 266 265 263 260 259 258 258 259 260 259 259 260 261 262 262 263 263 263 264 266 268 270 270 269 267 267 266 265 266 266 268 268 268 268 268 269 270 270
285 280 278 278 276 274 272 269 266 264 263 261 261 262 263 263 262 262 263 264 265 265 265 265 265 266 268 269 269 269 269 269 269 268 268 268 269 270 270 269 270 271 271 271
288 285 281 278 278 277 276 274 271 268 266 263 263 264 266 266 265 265 266 267 267 266 266 266 266 266 266 268 269 270 271 272 272 271 271 271 271 271 270 269 269 269 269 269